Location: T�chigga el Be�da
(16.4766°N, 9.3887°W)
Time: 08:38:26
(UTC+00:00)

Cosmos 1777 Rocket - Pass Details

Date: 27 February 2020
Orbit: 759 x 775 km, 74.0° (Epoch: 08 April)

Event Time Altitude Azimuth Distance (km) Brightness Sun altitude
Rises 18:58:29 0° 348° (NNW) 3,235 7.3 -4.3°
Reaches altitude 10° 19:00:52 10° 349° (N) 2,306 6.5 -4.9°
Maximum altitude 19:06:06 81° 76° (ENE) 778 4.0 -6.1°
Drops below altitude 10° 19:11:18 10° 164° (SSE) 2,290 6.4 -7.3°
Sets 19:13:40 0° 165° (SSE) 3,212 7.1 -7.9°
